Location: Crescent
(42.8242°N, 73.7329°W)
Time: 15:00:15
(UTC+00:00)

Tiros 1 - Pass Details

Date: 24 February 2026
Orbit: 618 x 649 km, 48.4° (Epoch: 6 March)

Event Time Altitude Azimuth Distance (km) Brightness Sun altitude
Exits shadow 10:17:26 - 208° (SSW) 2,374 9.8 -15.6°
Reaches altitude 10° 10:18:27 10° 204° (SSW) 2,016 9.4 -15.5°
Maximum altitude 10:22:35 33° 141° (SE) 1,073 8.7 -14.7°
Drops below altitude 10° 10:26:42 10° 77° (ENE) 2,007 11.0 -13.9°
Sets 10:29:11 0° 68° (ENE) 2,911 11.9 -13.5°
